Weather History for KDGW - February, 2014

Change the Weather History Date:

Monday, February 3, 2014

  Actual Average Record
Temperature  
Mean Temperature 16 °F 25 °F  
Max Temperature 29 °F 38 °F 57 °F (1963)
Min Temperature 2 °F 12 °F -4 °F (2011)
Degree Days  
Heating Degree Days 49 40  
Month to date heating degree days 169 120  
Since 1 July heating degree days 4443 4451  
Cooling Degree Days 0 0  
Month to date cooling degree days 0 0  
Year to date cooling degree days 0 0  
Moisture  
Dew Point 6 °F    
Average Humidity 73    
Maximum Humidity 95    
Minimum Humidity 50    
Precipitation  
Precipitation 0.00 in 0.01 in 0.08 in (1982)
Month to date precipitation 0.01 0.04  
Year to date precipitation 0.39 0.42  
Sea Level Pressure  
Sea Level Pressure 30.05 in    
Wind  
Wind Speed 6 mph (ENE)    
Max Wind Speed 14 mph    
Max Gust Speed 17 mph    
Visibility 10 miles    
Events      
T = Trace of Precipitation, MM = Missing Value Source: NWS Daily Summary

Daily Weather History Graph

Daily Weather History Graph

Search for Another Location

Airport or City:

Trip Planner

Search our weather history database for the weather conditions in past years. The results will help you decide how hot, cold, wet, or windy it might be!

Date:

Astronomy

Feb. 03, 2014 Rise Set
Actual Time 7:13 AM MST 5:17 PM MST
Civil Twilight 6:43 AM MST 5:47 PM MST
Nautical Twilight 6:10 AM MST 6:21 PM MST
Astronomical Twilight 5:37 AM MST 6:54 PM MST
Moon 9:10 AM MST (2/3) 10:18 PM MST (2/3)
Length of Visible Light 11h 03m
Length of Day
10h 03m
Waxing Crescent, 20% of the Moon is Illuminated
Feb 3
Waxing Crescent
Feb 6
First Quarter
Feb 14
Full
Feb 22
Last Quarter
Mar 1
New

Hourly Weather History & Observations

Time (MST) Temp. Windchill Dew Point Humidity Pressure Visibility Wind Dir Wind Speed Gust Speed Precip Events Conditions
12:53 AM 10.0 °F - 5.0 °F 80% 30.04 in 10.0 mi Calm Calm - N/A   Overcast
1:53 AM 9.0 °F 2.4 °F 3.9 °F 80% 30.04 in 10.0 mi SSE 3.5 mph - N/A   Clear
2:53 AM 9.0 °F -3.2 °F 5.0 °F 84% 30.01 in 10.0 mi SSE 8.1 mph - N/A   Mostly Cloudy
3:53 AM 8.1 °F -4.3 °F 3.9 °F 83% 30.01 in 10.0 mi SSE 8.1 mph - N/A   Scattered Clouds
4:53 AM 10.0 °F - 5.0 °F 80% 30.02 in 10.0 mi Calm Calm - N/A   Mostly Cloudy
5:53 AM 5.0 °F - 1.0 °F 84% 30.06 in 10.0 mi Calm Calm - N/A   Partly Cloudy
6:53 AM 1.9 °F - -2.9 °F 80% 30.09 in 10.0 mi Calm Calm - N/A   Clear
7:53 AM 1.9 °F - -0.9 °F 88% 30.10 in 9.0 mi Calm Calm - N/A   Clear
8:53 AM 12.9 °F 5.2 °F 6.1 °F 74% 30.06 in 10.0 mi NNE 4.6 mph - N/A   Clear
9:53 AM 18.0 °F 9.8 °F 8.1 °F 65% 30.08 in 10.0 mi NNW 5.8 mph - N/A   Partly Cloudy
10:53 AM 21.0 °F 12.4 °F 9.0 °F 60% 30.07 in 10.0 mi NW 6.9 mph - N/A   Clear
11:53 AM 27.0 °F 19.5 °F 10.9 °F 51% 30.02 in 10.0 mi NNW 6.9 mph - N/A   Scattered Clouds
12:53 PM 28.0 °F 20.0 °F 12.0 °F 51% 29.99 in 10.0 mi North 8.1 mph - N/A   Clear
1:53 PM 28.0 °F 18.6 °F 12.0 °F 51% 29.99 in 10.0 mi North 10.4 mph - N/A   Clear
2:53 PM 26.1 °F 15.6 °F 10.9 °F 53% 30.02 in 10.0 mi North 11.5 mph - N/A   Clear
3:53 PM 25.0 °F 14.8 °F 10.9 °F 55% 30.04 in 10.0 mi North 10.4 mph - N/A   Clear
4:53 PM 21.0 °F 14.6 °F 10.9 °F 65% 30.06 in 10.0 mi WNW 4.6 mph - N/A   Clear
5:53 PM 16.0 °F 10.4 °F 9.0 °F 74% 30.12 in 10.0 mi WSW 3.5 mph - N/A   Clear
6:53 PM 12.9 °F 5.2 °F 7.0 °F 77% 30.15 in 10.0 mi NNE 4.6 mph - N/A   Clear
7:53 PM 10.0 °F 3.6 °F 5.0 °F 80% 30.17 in 10.0 mi East 3.5 mph - N/A   Clear
8:53 PM 10.0 °F -2.9 °F 5.0 °F 80% 30.14 in 10.0 mi East 9.2 mph - N/A   Scattered Clouds
9:53 PM 8.1 °F -6.2 °F 3.9 °F 83% 30.14 in 10.0 mi East 10.4 mph - N/A   Scattered Clouds
10:33 PM 8.6 °F -4.7 °F 3.2 °F 79% 29.93 in 10.0 mi East 9.2 mph - N/A   Overcast
10:48 PM 8.6 °F -4.7 °F 3.2 °F 79% 29.93 in 10.0 mi East 9.2 mph - N/A   Overcast
10:53 PM 9.0 °F -5.1 °F 3.9 °F 80% 30.13 in 10.0 mi East 10.4 mph - N/A   Overcast
11:12 PM 10.4 °F -3.3 °F 5.0 °F 79% 29.94 in 10.0 mi East 10.4 mph - N/A   Overcast
11:25 PM 10.4 °F -5.4 °F 6.8 °F 85% 29.93 in 10.0 mi ESE 13.8 mph - N/A   Overcast
11:53 PM 10.0 °F -5.9 °F 5.0 °F 80% 30.10 in 9.0 mi East 13.8 mph - N/A   Overcast